Location: Sungai Buloh
(3.1000°N, 113.0000°E)
Time: 22:47:33
(UTC+00:00)

USA 215 - Pass Details

Date: 12 January 2026
Orbit: 1098 x 1109 km, 123.0° (Epoch: 10 January)

Event Time Altitude Azimuth Distance (km) Brightness Sun altitude
Rises 21:02:39 0° 159° (SSE) 3,924 6.8 -22.9°
Reaches altitude 10° 21:05:17 10° 166° (SSE) 2,966 6.0 -22.3°
Maximum altitude 21:11:20 41° 234° (SW) 1,560 3.8 -20.9°
Enters shadow 21:13:31 32° 274° (W) 1,806 3.9 -20.4°
